Tümü
Wildlife/Stroud Airport (Catarina, TX) TS80 Hava Durumu
There is no TAF data available at TS80 or any nearby airports.
There is no METAR data available at TS80. Showing METAR data for KCZT (15 mi KD).
Yakın zamandaki CZT METAR geçmişi (TS80 verisi yok)
| Date | Time (CDT) | Flight Rules | Wind Dir. | Speed | Type | Height AGL (ft) | Visibility | Temp (°C) | Temp (°F) | Dew Point (°C) | Dew Point (°F) | Rel. Humid. | Pressure | Density Altitude | Remarks |
|---|---|---|---|---|---|---|---|---|---|---|---|---|---|---|---|
| 03-May | 20:15 | VFR | 140° | 4 kt | 10 miles | 24° | 75° | 11° | 51° | 44% | 30.01 in Hg | 1.588 ft | |||
| 03-May | 19:55 | VFR | 140° | 3 kt | 10 miles | 25° | 77° | 11° | 51° | 41% | 30.00 in Hg | 1.718 ft | |||
| 03-May | 19:35 | VFR | 140° | 7 kt | 10 miles | 26° | 78° | 10° | 50° | 37% | 30.00 in Hg | 1.838 ft | |||
| 03-May | 19:15 | VFR | 160° | 9 kt | 10 miles | 26° | 78° | 10° | 50° | 37% | 30.00 in Hg | 1.838 ft | |||
| 03-May | 18:55 | VFR | 140° | 9 kt | 10 miles | 27° | 80° | 10° | 50° | 34% | 30.01 in Hg | 1.948 ft | |||
| 03-May | 18:35 | VFR | 130° | 7 kt | 10 miles | 28° | 82° | 10° | 50° | 32% | 30.00 in Hg | 2.078 ft | |||
| 03-May | 18:15 | VFR | 140° | 7 kt | 10 miles | 28° | 82° | 9° | 48° | 30% | 30.01 in Hg | 2.068 ft | |||
| 03-May | 17:55 | VFR | 150° | 6 kt | 10 miles | 28° | 82° | 9° | 48° | 30% | 30.02 in Hg | 2.058 ft | |||
| 03-May | 17:15 | VFR | 130° | 8 kt | 10 miles | 28° | 82° | 8° | 46° | 28% | 30.02 in Hg | 2.058 ft | |||
| 03-May | 16:55 | VFR | 150° | 4 kt | 10 miles | 28° | 82° | 9° | 48° | 30% | 30.04 in Hg | 2.038 ft | |||
| 03-May | 16:15 | VFR | 160° | 9 kt | 10 miles | 28° | 82° | 9° | 48° | 30% | 30.07 in Hg | 2.008 ft | |||
| 03-May | 15:55 | VFR | 120° | 8 kt | 10 miles | 27° | 80° | 8° | 46° | 30% | 30.08 in Hg | 1.878 ft | |||
| 03-May | 15:15 | VFR | 170° | 6 kt | 10 miles | 27° | 80° | 8° | 46° | 30% | 30.11 in Hg | 1.848 ft | |||
| 03-May | 14:55 | VFR | 150° | 8 kt | 10 miles | 27° | 80° | 9° | 48° | 32% | 30.12 in Hg | 1.838 ft | |||
| 03-May | 14:35 | VFR | 180° | 5 kt | 10 miles | 27° | 80° | 9° | 48° | 32% | 30.13 in Hg | 1.828 ft | |||
| 03-May | 14:15 | VFR | 140° | 8 kt | 10 miles | 27° | 80° | 10° | 50° | 34% | 30.14 in Hg | 1.818 ft | |||
| 03-May | 13:55 | VFR | 140° | 7 kt | 10 miles | 26° | 78° | 9° | 48° | 34% | 30.15 in Hg | 1.688 ft | |||
| 03-May | 13:35 | VFR | 200° | 3 kt | 10 miles | 26° | 78° | 10° | 50° | 37% | 30.17 in Hg | 1.668 ft | |||
| 03-May | 13:15 | VFR | 140° | 6 kt | 10 miles | 26° | 78° | 10° | 50° | 37% | 30.17 in Hg | 1.668 ft | |||
| 03-May | 12:55 | VFR | 190° | 7 kt | 10 miles | 25° | 77° | 10° | 50° | 39% | 30.19 in Hg | 1.528 ft | |||
| 03-May | 12:35 | VFR | 130° | 8 kt | 10 miles | 25° | 77° | 10° | 50° | 39% | 30.20 in Hg | 1.518 ft | |||
| 03-May | 12:15 | VFR | 180° | 7 kt | 10 miles | 25° | 77° | 10° | 50° | 39% | 30.21 in Hg | 1.508 ft | Wind gusting to 16 KT | ||
| 03-May | 11:55 | VFR | 170° | 7 kt | 10 miles | 24° | 75° | 11° | 51° | 44% | 30.21 in Hg | 1.388 ft | |||
| 03-May | 11:35 | VFR | 180° | 7 kt | 10 miles | 23° | 73° | 11° | 51° | 47% | 30.22 in Hg | 1.258 ft |
Giriş
| Tarayıcınız desteklenmiyor. tarayıcınızı yükseltin |
